Tacoma Narrows, WA
on Wednesday, February 27, 2013

Wednesday
Previous Day Next Day
Daily Summary
 ActualAverageRecord
Temperature
Mean Temperature °F °F  
Max Temperature 46°F 47°F 57°F (2005)
Min Temperature 41°F 36°F 32°F (2001)
Degree Days
Heating Degree Days 22    
Moisture
Dew Point 39°F   
Average Humidity 84    
Maximum Humidity 93    
Minimum Humidity 68    
Precipitation
Precipitation 0.13 in in in ()
Wind
Wind Speed 6 mph   
Max Wind Speed 13 mph   
Max Gust Speed 20 mph   
Visibility 9 miles   
Events Rain   
Averages and records for this station are not official NWS values.
Key: T is trace of precipitation, MM is missing value
Source: NWS Daily Summary
Seasonal Weather Averages
Time(PST)TemperatureDew PointHumidity Pressure Visibility Wind DirectionWind SpeedGust SpeedPrecipitationEvents Conditions
12:53 AM 44.1°F 34.0°F 68% 30.22 in 10.0 miles SW 12.7 mph 19.6 mph 0.01 in   Overcast
1:07 AM 42.8°F 35.6°F 76% 30.22 in 10.0 miles West 6.9 mph - N/A   Overcast
1:39 AM 42.8°F 35.6°F 76% 30.23 in 10.0 miles SSW 6.9 mph - 0.00 in   Overcast
1:53 AM 42.1°F 36.0°F 79% 30.24 in 10.0 miles South 10.4 mph - 0.00 in   Overcast
2:34 AM 42.8°F 35.6°F 76% 30.24 in 10.0 miles SSW 6.9 mph - N/A   Overcast
2:53 AM 43.0°F 36.0°F 76% 30.25 in 10.0 miles SSW 6.9 mph - N/A   Overcast
3:16 AM 41.0°F 35.6°F 81% 30.25 in 10.0 miles South 5.8 mph - N/A   Mostly Cloudy
3:53 AM 41.0°F 37.0°F 86% 30.25 in 10.0 miles SSW 6.9 mph - N/A   Partly Cloudy
4:08 AM 42.8°F 37.4°F 81% 30.25 in 10.0 miles SSW 6.9 mph - N/A   Mostly Cloudy
4:31 AM 42.8°F 37.4°F 81% 30.25 in 10.0 miles SSW 6.9 mph - N/A   Mostly Cloudy
4:53 AM 42.1°F 37.0°F 82% 30.27 in 10.0 miles South 5.8 mph - N/A   Clear
5:38 AM 41.0°F 37.4°F 87% 30.28 in 10.0 miles South 3.5 mph - N/A   Partly Cloudy
5:53 AM 41.0°F 37.9°F 89% 30.30 in 10.0 miles South 4.6 mph - N/A   Scattered Clouds
6:53 AM 41.0°F 37.4°F 87% 30.29 in 10.0 miles South 3.5 mph - N/A   Clear
7:53 AM 42.1°F 37.9°F 85% 30.30 in 10.0 miles South 4.6 mph - N/A   Scattered Clouds
8:53 AM 43.0°F 37.9°F 82% 30.30 in 10.0 miles South 4.6 mph - N/A   Mostly Cloudy
9:53 AM 44.1°F 37.9°F 79% 30.29 in 10.0 miles Calm Calm - N/A   Overcast
10:53 AM 45.0°F 37.0°F 74% 30.30 in 10.0 miles West 3.5 mph - N/A   Overcast
11:53 AM 45.0°F 37.9°F 76% 30.31 in 10.0 miles Calm Calm - N/A   Overcast
12:53 PM 46.0°F 37.9°F 73% 30.30 in 10.0 miles Calm Calm - N/A   Overcast
1:53 PM 46.9°F 39.0°F 74% 30.27 in 10.0 miles Calm Calm - 0.00 in   Overcast
2:53 PM 46.9°F 39.0°F 74% 30.28 in 10.0 miles WNW 3.5 mph - N/A   Overcast
3:53 PM 45.0°F 41.0°F 86% 30.28 in 6.0 miles NW 3.5 mph - 0.01 in Rain Light Rain
4:23 PM 44.6°F 42.8°F 93% 30.26 in 10.0 miles Calm Calm - 0.00 in Rain Light Rain
4:53 PM 45.0°F 42.1°F 90% 30.27 in 3.0 miles Calm Calm - 0.01 in Rain Light Rain
5:53 PM 44.1°F 42.1°F 93% 30.27 in 3.0 miles Calm Calm - 0.02 in Rain Light Rain
6:07 PM 44.6°F 42.8°F 93% 30.26 in 2.0 miles Calm Calm - 0.04 in Rain Light Rain
6:53 PM 44.1°F 42.1°F 93% 30.26 in 2.0 miles Calm Calm - 0.06 in   Overcast
7:50 PM 44.6°F 42.8°F 93% 30.27 in 3.0 miles North 4.6 mph - 0.02 in Rain Light Rain
7:53 PM 44.1°F 42.1°F 93% 30.28 in 3.0 miles North 4.6 mph - 0.02 in Rain Light Rain
8:46 PM 44.6°F 42.8°F 93% 30.27 in 10.0 miles North 3.5 mph - 0.00 in   Overcast
8:53 PM 44.1°F 42.1°F 93% 30.28 in 10.0 miles Calm Calm - 0.00 in   Overcast
9:21 PM 44.6°F 41.0°F 87% 30.27 in 10.0 miles Calm Calm - N/A   Overcast
9:29 PM 44.6°F 42.8°F 93% 30.27 in 10.0 miles Calm Calm - N/A   Overcast
9:53 PM 44.1°F 41.0°F 89% 30.27 in 10.0 miles North 3.5 mph - N/A   Overcast
10:53 PM 44.1°F 39.9°F 85% 30.27 in 10.0 miles NNE 5.8 mph - N/A   Overcast
11:29 PM 42.8°F 39.2°F 87% 30.26 in 10.0 miles NNE 4.6 mph - N/A   Overcast
11:38 PM 42.8°F 39.2°F 87% 30.26 in 10.0 miles NNE 4.6 mph - N/A   Overcast
11:53 PM 43.0°F 39.9°F 89% 30.26 in 10.0 miles NE 3.5 mph - N/A   Overcast
Moon Phase
Feb. 27 Mar. 04 Mar. 11 Mar. 19 Mar. 27
Sunrise:06:53 AM (PST) Moon Rise:08:34 PM (PST)2/27
Sunset:05:53 PM (PST) Moon Set:07:20 AM (PST)2/27

Copyright © 2014 The Weather Underground, Inc.